| time (UTC) | temp C | wind direction | speed KPH | gust KPH | rain 1hr cm | rain 24hr cm | rain mn cm | humidity % | barometer mb |
| 20260509124002 | 13 | 251 | 3.2 | 4.8 | 0.00 | 0.00 | 0.00 | 66 | 1003.8 |
| 20260509123002 | 13 | 284 | 9.7 | 11.3 | 0.00 | 0.00 | 0.00 | 68 | 1003.6 |
| 20260509122002 | 13 | 258 | 16.1 | 19.3 | 0.00 | 0.00 | 0.00 | 67 | 1003.6 |
| 20260509121001 | 13 | 238 | 12.9 | 17.7 | 0.00 | 0.00 | 0.00 | 67 | 1003.8 |
| 20260509120502 | 13 | 240 | 16.1 | 17.7 | 0.00 | 0.00 | 0.00 | 64 | 1003.7 |
| 20260509115502 | 13 | 252 | 8.0 | 8.0 | 0.00 | 0.00 | 0.00 | 66 | 1004.0 |
| 20260509114001 | 13 | 215 | 4.8 | 4.8 | 0.00 | 0.00 | 0.00 | 66 | 1004.1 |
| 20260509113002 | 13 | 196 | 8.0 | 9.7 | 0.00 | 0.00 | 0.00 | 62 | 1003.9 |
| 20260509112501 | 13 | 214 | 6.4 | 9.7 | 0.00 | 0.00 | 0.00 | 63 | 1003.9 |
| 20260509111002 | 13 | 195 | 12.9 | 19.3 | 0.00 | 0.00 | 0.00 | 62 | 1004.0 |
| 20260509110501 | 12 | 198 | 4.8 | 6.4 | 0.00 | 0.00 | 0.00 | 63 | 1004.2 |
| 20260509105502 | 12 | 221 | 6.4 | 6.4 | 0.00 | 0.00 | 0.00 | 63 | 1004.6 |
| 20260509105001 | 12 | 254 | 6.4 | 8.0 | 0.00 | 0.00 | 0.00 | 62 | 1004.6 |
| 20260509103502 | 11 | 233 | 3.2 | 4.8 | 0.00 | 0.00 | 0.00 | 63 | 1004.6 |
| 20260509102002 | 12 | 158 | 1.6 | 3.2 | 0.00 | 0.00 | 0.00 | 59 | 1004.7 |
| 20260509100002 | 13 | 221 | 4.8 | 6.4 | 0.00 | 0.00 | 0.00 | 53 | 1005.2 |
| 20260509095002 | 13 | 233 | 6.4 | 8.0 | 0.00 | 0.00 | 0.00 | 55 | 1005.4 |
| 20260509093502 | 13 | 210 | 12.9 | 16.1 | 0.00 | 0.00 | 0.00 | 54 | 1005.6 |
| 20260509092002 | 13 | 193 | 8.0 | 9.7 | 0.00 | 0.00 | 0.00 | 51 | 1005.8 |
| 20260509091001 | 13 | 194 | 11.3 | 11.3 | 0.00 | 0.00 | 0.00 | 51 | 1005.8 |
| 20260509090001 | 13 | 205 | 16.1 | 17.7 | 0.00 | 0.00 | 0.00 | 49 | 1005.8 |
| 20260509084502 | 13 | 196 | 14.5 | 17.7 | 0.00 | 0.00 | 0.00 | 51 | 1006.2 |
| 20260509084001 | 13 | 215 | 16.1 | 19.3 | 0.00 | 0.00 | 0.00 | 48 | 1006.2 |
| 20260509083502 | 13 | 213 | 14.5 | 17.7 | 0.00 | 0.00 | 0.00 | 52 | 1006.1 |
| 20260509083001 | 13 | 201 | 17.7 | 20.9 | 0.00 | 0.00 | 0.00 | 51 | 1006.2 |
| 20260509082502 | 13 | 208 | 12.9 | 14.5 | 0.00 | 0.00 | 0.00 | 51 | 1006.0 |
| 20260509081001 | 13 | 207 | 14.5 | 16.1 | 0.00 | 0.00 | 0.00 | 52 | 1006.4 |
| 20260509080002 | 13 | 201 | 11.3 | 14.5 | 0.00 | 0.00 | 0.00 | 53 | 1006.5 |
| 20260509075501 | 13 | 180 | 16.1 | 19.3 | 0.00 | 0.00 | 0.00 | 50 | 1006.5 |
| 20260509074002 | 12 | 192 | 9.7 | 11.3 | 0.00 | 0.00 | 0.00 | 53 | 1006.8 |
| 20260509073502 | 10 | 166 | 3.2 | 4.8 | 0.00 | 0.00 | 0.00 | 61 | 1007.2 |
| 20260509073002 | 10 | 139 | 1.6 | 3.2 | 0.00 | 0.00 | 0.00 | 61 | 1007.1 |
| 20260509070002 | 7 | 131 | 1.6 | 3.2 | 0.00 | 0.00 | 0.00 | 74 | 1007.7 |
| 20260509065501 | 7 | 80 | 3.2 | 3.2 | 0.00 | 0.00 | 0.00 | 80 | 1008.0 |
| 20260509065002 | 7 | 105 | 3.2 | 3.2 | 0.00 | 0.00 | 0.00 | 78 | 1007.8 |
| 20260509064501 | 7 | 52 | 1.6 | 3.2 | 0.00 | 0.00 | 0.00 | 78 | 1008.0 |
| 20260509064002 | 7 | 109 | 1.6 | 3.2 | 0.00 | 0.00 | 0.00 | 74 | 1008.2 |
| 20260509062002 | 8 | 141 | 0.0 | 0.0 | 0.00 | 0.00 | 0.00 | 69 | 1008.3 |
| 20260509061501 | 8 | 132 | 0.0 | 0.0 | 0.00 | 0.00 | 0.00 | 70 | 1008.5 |
| 20260509061002 | 9 | 147 | 3.2 | 4.8 | 0.00 | 0.00 | 0.00 | 70 | 1008.5 |
| 20260509060502 | 8 | 84 | 0.0 | 0.0 | 0.00 | 0.00 | 0.00 | 64 | 1008.7 |
| 20260509055502 | 9 | 154 | 1.6 | 3.2 | 0.00 | 0.00 | 0.00 | 68 | 1009.0 |
| 20260509055002 | 9 | 142 | 0.0 | 0.0 | 0.00 | 0.00 | 0.00 | 67 | 1009.1 |
| 20260509054502 | 10 | 147 | 0.0 | 0.0 | 0.00 | 0.00 | 0.00 | 63 | 1009.2 |
| 20260509054002 | 10 | 147 | 1.6 | 3.2 | 0.00 | 0.00 | 0.00 | 62 | 1009.2 |
| 20260509053502 | 10 | 134 | 4.8 | 4.8 | 0.00 | 0.00 | 0.00 | 63 | 1009.2 |
| 20260509053002 | 10 | 142 | 1.6 | 3.2 | 0.00 | 0.00 | 0.00 | 61 | 1009.2 |
| 20260509052502 | 10 | 171 | 4.8 | 4.8 | 0.00 | 0.00 | 0.00 | 62 | 1009.3 |
| 20260509050501 | 9 | 92 | 4.8 | 6.4 | 0.00 | 0.00 | 0.00 | 62 | 1009.6 |
| 20260509045502 | 10 | 145 | 3.2 | 3.2 | 0.00 | 0.00 | 0.00 | 61 | 1009.7 |
| 20260509045002 | 10 | 121 | 4.8 | 4.8 | 0.00 | 0.00 | 0.00 | 61 | 1009.6 |
| 20260509044502 | 10 | 131 | 1.6 | 3.2 | 0.00 | 0.00 | 0.00 | 61 | 1009.7 |
| 20260509043501 | 9 | 78 | 3.2 | 4.8 | 0.00 | 0.00 | 0.00 | 62 | 1009.9 |
| 20260509043002 | 9 | 139 | 0.0 | 0.0 | 0.00 | 0.00 | 0.00 | 64 | 1009.8 |
| 20260509042502 | 9 | 132 | 0.0 | 0.0 | 0.00 | 0.00 | 0.00 | 62 | 1010.1 |
| 20260509042002 | 10 | 119 | 1.6 | 3.2 | 0.00 | 0.00 | 0.00 | 62 | 1010.2 |
| 20260509041502 | 10 | 107 | 1.6 | 3.2 | 0.00 | 0.00 | 0.00 | 60 | 1010.4 |
| 20260509041002 | 10 | 116 | 1.6 | 3.2 | 0.00 | 0.00 | 0.00 | 60 | 1010.3 |
| 20260509040002 | 10 | 122 | 3.2 | 3.2 | 0.00 | 0.00 | 0.00 | 58 | 1010.4 |
| 20260509035002 | 10 | 143 | 1.6 | 3.2 | 0.00 | 0.00 | 0.00 | 59 | 1010.5 |
| 20260509034502 | 10 | 144 | 0.0 | 0.0 | 0.00 | 0.00 | 0.00 | 60 | 1010.5 |
| 20260509034001 | 10 | 126 | 1.6 | 3.2 | 0.00 | 0.00 | 0.00 | 59 | 1010.3 |
| 20260509033502 | 10 | 144 | 0.0 | 0.0 | 0.00 | 0.00 | 0.00 | 58 | 1010.3 |
| 20260509033001 | 10 | 135 | 1.6 | 3.2 | 0.00 | 0.00 | 0.00 | 59 | 1010.5 |
| 20260509032002 | 10 | 106 | 3.2 | 4.8 | 0.00 | 0.00 | 0.00 | 58 | 1010.5 |
| 20260509030001 | 8 | 85 | 0.0 | 0.0 | 0.00 | 0.00 | 0.00 | 67 | 1010.8 |
| 20260509025001 | 8 | 120 | 0.0 | 0.0 | 0.00 | 0.00 | 0.00 | 69 | 1010.8 |
| 20260509024502 | 8 | 120 | 0.0 | 0.0 | 0.00 | 0.00 | 0.00 | 66 | 1010.8 |
| 20260509024001 | 9 | 84 | 3.2 | 3.2 | 0.00 | 0.00 | 0.00 | 67 | 1010.9 |
| 20260509023502 | 9 | 133 | 1.6 | 3.2 | 0.00 | 0.00 | 0.00 | 62 | 1011.0 |
| 20260509023001 | 9 | 123 | 3.2 | 3.2 | 0.00 | 0.00 | 0.00 | 61 | 1010.9 |
| 20260509022502 | 9 | 123 | 3.2 | 3.2 | 0.00 | 0.00 | 0.00 | 65 | 1011.0 |
| 20260509022001 | 9 | 121 | 4.8 | 4.8 | 0.00 | 0.00 | 0.00 | 64 | 1010.9 |
| 20260509021502 | 8 | 153 | 0.0 | 0.0 | 0.00 | 0.00 | 0.00 | 71 | 1010.9 |
| 20260509021001 | 8 | 117 | 0.0 | 0.0 | 0.00 | 0.00 | 0.00 | 71 | 1011.0 |
| 20260509020502 | 9 | 119 | 0.0 | 0.0 | 0.00 | 0.00 | 0.00 | 66 | 1011.1 |
| 20260509020002 | 9 | 113 | 1.6 | 3.2 | 0.00 | 0.00 | 0.00 | 63 | 1011.0 |
| 20260509015501 | 9 | 110 | 1.6 | 4.8 | 0.00 | 0.00 | 0.00 | 64 | 1011.0 |
| 20260509015002 | 9 | 155 | 0.0 | 0.0 | 0.00 | 0.00 | 0.00 | 69 | 1011.0 |
| 20260509014501 | 9 | 110 | 1.6 | 3.2 | 0.00 | 0.00 | 0.00 | 64 | 1011.0 |
| 20260509014002 | 9 | 110 | 3.2 | 3.2 | 0.00 | 0.00 | 0.00 | 64 | 1010.9 |
| 20260509012002 | 10 | 126 | 1.6 | 3.2 | 0.00 | 0.00 | 0.00 | 65 | 1010.6 |
| 20260509011002 | 11 | 204 | 3.2 | 3.2 | 0.00 | 0.00 | 0.00 | 58 | 1010.9 |
| 20260509005002 | 11 | 231 | 4.8 | 6.4 | 0.00 | 0.00 | 0.00 | 53 | 1011.1 |
| 20260509004002 | 11 | 264 | 4.8 | 6.4 | 0.00 | 0.00 | 0.00 | 56 | 1010.8 |
| 20260509003502 | 11 | 291 | 4.8 | 4.8 | 0.00 | 0.00 | 0.00 | 55 | 1010.7 |
| 20260509003001 | 11 | 266 | 3.2 | 4.8 | 0.00 | 0.00 | 0.00 | 55 | 1010.7 |
| 20260509002502 | 11 | 282 | 4.8 | 6.4 | 0.00 | 0.00 | 0.00 | 53 | 1010.7 |
| 20260509002001 | 11 | 246 | 1.6 | 3.2 | 0.00 | 0.00 | 0.00 | 55 | 1010.8 |
| 20260509001502 | 12 | 265 | 3.2 | 3.2 | 0.00 | 0.00 | 0.00 | 56 | 1010.7 |
| 20260509001001 | 12 | 235 | 0.0 | 0.0 | 0.00 | 0.00 | 0.00 | 55 | 1010.9 |
| 20260509000502 | 12 | 235 | 0.0 | 0.0 | 0.00 | 0.00 | 0.00 | 52 | 1010.9 |
| 20260509000002 | 12 | 235 | 0.0 | 0.0 | 0.00 | 0.00 | 0.00 | 56 | 1010.9 |
| 20260508235501 | 12 | 239 | 1.6 | 3.2 | 0.00 | 0.00 | 0.00 | 49 | 1011.0 |
| 20260508235002 | 12 | 247 | 1.6 | 3.2 | 0.00 | 0.00 | 0.00 | 49 | 1011.0 |
| 20260508234501 | 12 | 279 | 6.4 | 6.4 | 0.00 | 0.00 | 0.00 | 50 | 1010.8 |
| 20260508233501 | 12 | 271 | 4.8 | 4.8 | 0.00 | 0.00 | 0.00 | 49 | 1011.1 |
| 20260508232001 | 12 | 247 | 6.4 | 6.4 | 0.00 | 0.00 | 0.00 | 50 | 1011.3 |
| 20260508231502 | 12 | 246 | 6.4 | 6.4 | 0.00 | 0.00 | 0.00 | 47 | 1011.2 |
| 20260508231001 | 12 | 248 | 6.4 | 8.0 | 0.00 | 0.00 | 0.00 | 48 | 1011.2 |
| 20260508230502 | 13 | 264 | 3.2 | 3.2 | 0.00 | 0.00 | 0.00 | 44 | 1011.2 |
| 20260508230001 | 13 | 234 | 4.8 | 4.8 | 0.00 | 0.00 | 0.00 | 48 | 1011.3 |
| 20260508225502 | 12 | 301 | 8.0 | 9.7 | 0.00 | 0.00 | 0.00 | 50 | 1011.3 |
| 20260508225001 | 12 | 296 | 3.2 | 4.8 | 0.00 | 0.00 | 0.00 | 46 | 1011.4 |
| 20260508224002 | 12 | 262 | 9.7 | 9.7 | 0.00 | 0.00 | 0.00 | 46 | 1011.3 |
| 20260508223002 | 12 | 241 | 3.2 | 4.8 | 0.00 | 0.00 | 0.00 | 48 | 1011.3 |
| 20260508221501 | 12 | 276 | 8.0 | 11.3 | 0.00 | 0.00 | 0.00 | 52 | 1011.3 |
| 20260508221002 | 12 | 331 | 4.8 | 6.4 | 0.00 | 0.00 | 0.00 | 49 | 1011.8 |
| 20260508220502 | 12 | 272 | 16.1 | 16.1 | 0.00 | 0.00 | 0.00 | 47 | 1011.6 |
| 20260508220002 | 12 | 308 | 6.4 | 8.0 | 0.00 | 0.00 | 0.00 | 48 | 1011.7 |
| 20260508215501 | 12 | 287 | 12.9 | 16.1 | 0.00 | 0.00 | 0.00 | 54 | 1011.9 |
| 20260508215002 | 12 | 257 | 9.7 | 9.7 | 0.00 | 0.00 | 0.00 | 52 | 1012.0 |
| 20260508213501 | 12 | 284 | 6.4 | 8.0 | 0.00 | 0.00 | 0.00 | 54 | 1011.8 |
| 20260508213002 | 12 | 268 | 8.0 | 9.7 | 0.00 | 0.00 | 0.00 | 56 | 1011.8 |
| 20260508211502 | 12 | 272 | 9.7 | 14.5 | 0.00 | 0.00 | 0.00 | 54 | 1011.9 |
| 20260508211001 | 12 | 305 | 4.8 | 8.0 | 0.00 | 0.00 | 0.00 | 55 | 1012.0 |
| 20260508210001 | 12 | 313 | 4.8 | 8.0 | 0.00 | 0.00 | 0.00 | 55 | 1012.1 |
| 20260508205001 | 11 | 283 | 6.4 | 8.0 | 0.00 | 0.00 | 0.00 | 59 | 1012.2 |
| 20260508204001 | 11 | 294 | 6.4 | 9.7 | 0.00 | 0.00 | 0.00 | 58 | 1012.2 |
| 20260508203001 | 11 | 277 | 8.0 | 9.7 | 0.00 | 0.00 | 0.00 | 59 | 1012.4 |
| 20260508202003 | 11 | 290 | 9.7 | 11.3 | 0.00 | 0.00 | 0.00 | 58 | 1012.5 |
| 20260508200502 | 11 | 265 | 14.5 | 17.7 | 0.00 | 0.00 | 0.00 | 58 | 1012.8 |
| 20260508200001 | 11 | 273 | 16.1 | 22.5 | 0.00 | 0.00 | 0.00 | 58 | 1012.6 |
| 20260508194502 | 11 | 261 | 30.6 | 33.8 | 0.00 | 0.00 | 0.00 | 60 | 1013.0 |
| 20260508193001 | 11 | 297 | 11.3 | 17.7 | 0.00 | 0.00 | 0.00 | 58 | 1013.2 |
| 20260508192502 | 11 | 292 | 17.7 | 19.3 | 0.00 | 0.00 | 0.00 | 58 | 1013.2 |
| 20260508191001 | 11 | 350 | 8.0 | 11.3 | 0.00 | 0.00 | 0.00 | 60 | 1013.0 |
| 20260508190502 | 11 | 308 | 20.9 | 22.5 | 0.00 | 0.00 | 0.00 | 60 | 1013.2 |
| 20260508190001 | 11 | 333 | 6.4 | 6.4 | 0.00 | 0.00 | 0.00 | 59 | 1012.9 |
| 20260508185002 | 11 | 278 | 19.3 | 22.5 | 0.00 | 0.00 | 0.00 | 56 | 1012.9 |
| 20260508184002 | 11 | 274 | 17.7 | 20.9 | 0.00 | 0.00 | 0.00 | 58 | 1013.1 |
| 20260508183501 | 11 | 305 | 6.4 | 8.0 | 0.00 | 0.00 | 0.00 | 57 | 1013.1 |
| 20260508183002 | 11 | 347 | 8.0 | 11.3 | 0.00 | 0.00 | 0.00 | 59 | 1013.1 |
| 20260508182501 | 11 | 268 | 12.9 | 17.7 | 0.00 | 0.00 | 0.00 | 59 | 1013.2 |
| 20260508182002 | 11 | 265 | 24.1 | 29.0 | 0.00 | 0.00 | 0.00 | 57 | 1013.3 |
| 20260508181002 | 10 | 290 | 14.5 | 17.7 | 0.00 | 0.00 | 0.00 | 57 | 1013.5 |
| 20260508175502 | 11 | 279 | 17.7 | 22.5 | 0.00 | 0.00 | 0.00 | 56 | 1013.3 |
| 20260508175001 | 11 | 286 | 14.5 | 20.9 | 0.00 | 0.00 | 0.00 | 58 | 1013.4 |
| 20260508174502 | 11 | 281 | 11.3 | 11.3 | 0.00 | 0.00 | 0.00 | 55 | 1013.5 |
| 20260508174001 | 10 | 252 | 14.5 | 17.7 | 0.00 | 0.00 | 0.00 | 58 | 1013.3 |
| 20260508172501 | 11 | 293 | 14.5 | 17.7 | 0.00 | 0.00 | 0.00 | 59 | 1013.8 |
| 20260508172002 | 11 | 263 | 24.1 | 25.7 | 0.00 | 0.00 | 0.00 | 55 | 1013.5 |
| 20260508171002 | 11 | 277 | 16.1 | 19.3 | 0.00 | 0.00 | 0.00 | 56 | 1013.7 |
| 20260508170501 | 10 | 303 | 6.4 | 9.7 | 0.00 | 0.00 | 0.00 | 55 | 1013.9 |
| 20260508170002 | 10 | 274 | 19.3 | 20.9 | 0.00 | 0.00 | 0.00 | 59 | 1013.8 |
| 20260508165501 | 10 | 292 | 12.9 | 16.1 | 0.00 | 0.00 | 0.00 | 59 | 1013.9 |
| 20260508164502 | 10 | 289 | 11.3 | 11.3 | 0.00 | 0.00 | 0.00 | 58 | 1014.2 |
| 20260508163502 | 10 | 275 | 19.3 | 22.5 | 0.00 | 0.00 | 0.00 | 58 | 1014.3 |
| 20260508163001 | 10 | 292 | 16.1 | 19.3 | 0.00 | 0.00 | 0.00 | 59 | 1014.2 |
| 20260508162502 | 10 | 293 | 8.0 | 9.7 | 0.00 | 0.00 | 0.00 | 61 | 1014.4 |
| 20260508162001 | 10 | 316 | 14.5 | 16.1 | 0.00 | 0.00 | 0.00 | 60 | 1014.3 |
| 20260508161502 | 10 | 286 | 11.3 | 14.5 | 0.00 | 0.00 | 0.00 | 60 | 1014.4 |
| 20260508161002 | 10 | 11 | 8.0 | 9.7 | 0.00 | 0.00 | 0.00 | 64 | 1014.6 |
| 20260508160502 | 10 | 259 | 24.1 | 29.0 | 0.00 | 0.00 | 0.00 | 63 | 1014.5 |
| 20260508160001 | 10 | 272 | 6.4 | 14.5 | 0.00 | 0.00 | 0.00 | 65 | 1014.6 |
| 20260508155502 | 10 | 319 | 16.1 | 19.3 | 0.00 | 0.00 | 0.00 | 63 | 1014.5 |
| 20260508154502 | 10 | 253 | 19.3 | 20.9 | 0.00 | 0.00 | 0.00 | 62 | 1014.8 |
| 20260508152501 | 10 | 272 | 19.3 | 25.7 | 0.00 | 0.00 | 0.00 | 63 | 1014.9 |
| 20260508150002 | 10 | 269 | 11.3 | 16.1 | 0.00 | 0.00 | 0.00 | 64 | 1015.2 |
| 20260508145002 | 9 | 312 | 9.7 | 14.5 | 0.00 | 0.00 | 0.00 | 65 | 1015.3 |
| 20260508144502 | 9 | 293 | 9.7 | 14.5 | 0.00 | 0.00 | 0.00 | 67 | 1015.4 |
| 20260508144002 | 9 | 282 | 9.7 | 11.3 | 0.00 | 0.00 | 0.00 | 66 | 1015.2 |
| 20260508143501 | 9 | 272 | 14.5 | 16.1 | 0.00 | 0.00 | 0.00 | 68 | 1015.4 |
| 20260508143002 | 9 | 286 | 8.0 | 9.7 | 0.00 | 0.00 | 0.00 | 64 | 1015.4 |
| 20260508142001 | 8 | 257 | 14.5 | 17.7 | 0.00 | 0.00 | 0.00 | 71 | 1015.8 |
| 20260508141502 | 8 | 293 | 14.5 | 17.7 | 0.00 | 0.00 | 0.00 | 69 | 1015.8 |
| 20260508141001 | 8 | 271 | 9.7 | 9.7 | 0.00 | 0.00 | 0.00 | 68 | 1015.9 |
| 20260508135502 | 8 | 265 | 14.5 | 16.1 | 0.00 | 0.00 | 0.00 | 71 | 1016.0 |
| 20260508135002 | 7 | 275 | 8.0 | 8.0 | 0.00 | 0.00 | 0.00 | 70 | 1016.0 |
| 20260508134501 | 7 | 287 | 11.3 | 11.3 | 0.00 | 0.00 | 0.00 | 72 | 1016.1 |
| 20260508134002 | 7 | 281 | 8.0 | 8.0 | 0.00 | 0.00 | 0.00 | 71 | 1016.2 |
| 20260508133501 | 7 | 267 | 11.3 | 16.1 | 0.00 | 0.00 | 0.00 | 74 | 1016.3 |
| 20260508133002 | 7 | 263 | 14.5 | 14.5 | 0.00 | 0.00 | 0.00 | 72 | 1016.3 |
| 20260508132502 | 7 | 258 | 9.7 | 11.3 | 0.00 | 0.00 | 0.00 | 75 | 1016.5 |
| 20260508132002 | 6 | 259 | 8.0 | 9.7 | 0.00 | 0.00 | 0.00 | 77 | 1016.4 |
| 20260508131502 | 6 | 265 | 6.4 | 8.0 | 0.00 | 0.00 | 0.00 | 75 | 1016.5 |
| 20260508131002 | 6 | 270 | 9.7 | 11.3 | 0.00 | 0.00 | 0.00 | 76 | 1016.6 |
| 20260508130502 | 6 | 259 | 9.7 | 11.3 | 0.00 | 0.00 | 0.00 | 75 | 1016.6 |
| 20260508130002 | 6 | 269 | 9.7 | 11.3 | 0.00 | 0.00 | 0.00 | 77 | 1016.7 |
| 20260508125502 | 6 | 274 | 9.7 | 9.7 | 0.00 | 0.00 | 0.00 | 76 | 1016.8 |